Location: Newark
(50.4375°N, 16.6489°E)
Time: 20:42:10
(UTC+00:00)

Envisat - Pass Details

Date: 19 September 2019
Orbit: 764 x 766 km, 98.1° (Epoch: 21 October)

Event Time Altitude Azimuth Distance (km) Brightness Sun altitude
Rises 18:21:46 0° 212° (SSW) 3,224 6.4 -13.7°
Reaches altitude 10° 18:24:54 10° 233° (SW) 2,303 5.9 -14.2°
Maximum altitude 18:28:08 17° 272° (W) 1,879 6.1 -14.6°
Drops below altitude 10° 18:31:22 10° 312° (NW) 2,314 6.6 -15.1°
Sets 18:34:32 0° 333° (NNW) 3,246 7.1 -15.6°
